Waarnemingen

Advertentie
Mijn weer
Kolmaardenstroemsfors, Zweden (2558): temperatuur & dauwpunt: 11.12.2018 02:00:00 - 17.12.2018 02:00:00 (CET)Kolmaardenstroemsfors, Zweden (2558): windsnelheid & windstoten: 11.12.2018 02:00:00 - 17.12.2018 02:00:00 (CET)Kolmaardenstroemsfors, Zweden (2558): windrichting: 11.12.2018 02:00:00 - 17.12.2018 02:00:00 (CET)Kolmaardenstroemsfors, Zweden (2558): luchtdruk: 11.12.2018 02:00:00 - 17.12.2018 02:00:00 (CET)Kolmaardenstroemsfors, Zweden (2558): zicht: 11.12.2018 02:00:00 - 17.12.2018 02:00:00 (CET)Kolmaardenstroemsfors, Zweden (2558): neerslag: 11.12.2018 02:00:00 - 17.12.2018 02:00:00 (CET)
Datum & Tijd tt [°C] td [°C] ff [km/u] ff [kn] fx [km/u] fx [kn] dd ppp [hPa] vv [km] rr [mm]
17.12.2018 02:00:00 -1,5 -1,8 3 1 7 4 NO 1015,8 6 0,0
17.12.2018 01:00:00 -1,3 -1,6 2 1 7 4 NO 1015,9 2,2 0,8
17.12.2018 00:00:00 -1,2 -1,5 3 2 7 4 ONO 1016,4 1,8 0,8
16.12.2018 23:00:00 -1,2 -1,5 3 2 9 5 O 1016,8 2,2 0,7
16.12.2018 22:00:00 -1,1 -1,4 3 2 13 7 ONO 1017,2 1,2 0,9
16.12.2018 21:00:00 -1,0 -1,3 6 3 13 7 O 1017,8 3,0 0,7
16.12.2018 20:00:00 -0,9 -1,2 4 2 19 10 O 1018,2 1,7 0,8
16.12.2018 19:00:00 -0,9 -1,2 5 3 19 10 O 1018,8 1,8 0,6
16.12.2018 18:00:00 -0,8 -1,1 4 2 19 10 OZO 1019,6 1,5 0,8
16.12.2018 17:00:00 -0,7 -1,0 7 4 19 10 O 1020,0 1,6 0,5
16.12.2018 16:00:00 -0,5 -0,8 7 4 21 11 O 1020,8 2,4 0,5
16.12.2018 15:00:00 -0,5 -0,8 7 4 21 11 O 1021,5 1,7 0,5
16.12.2018 14:00:00 -0,5 -0,9 4 2 25 14 O 1022,2 4,1 0,0
16.12.2018 13:00:00 -0,5 -0,9 9 5 25 14 OZO 1023,0 10 0,1
16.12.2018 12:00:00 -0,6 -1,0 9 5 24 13 OZO 1023,8 3,2 0,1
16.12.2018 11:00:00 -0,4 -0,8 7 4 22 12 OZO 1024,8 3,9 0,1
16.12.2018 10:00:00 -0,4 -0,7 9 5 22 12 OZO 1025,4 5 0,0
16.12.2018 09:00:00 -0,4 -0,7 8 4 21 12 ZO 1025,8 1,9 0,3
16.12.2018 08:00:00 -0,3 -0,5 7 4 22 12 OZO 1025,9 8 0,0
16.12.2018 07:00:00 -0,4 -0,7 8 4 18 10 O 1026,2 3,7 0,3
16.12.2018 06:00:00 -0,8 -1,1 8 4 19 10 O 1026,8 1,7 0,2
16.12.2018 05:00:00 -1,2 -1,6 7 4 18 10 ONO 1027,4 3,1 0,2
16.12.2018 04:00:00 -1,3 -1,9 8 4 22 12 ONO 1028,3 1,9 0,1
16.12.2018 03:00:00 -1,2 -2,2 9 5 22 12 ONO 1029,2 14 0,0
16.12.2018 02:00:00 -1,2 -2,2 10 6 21 12 ONO 1029,9 15 0,0
16.12.2018 01:00:00 -1,8 -2,5 6 3 19 10 NO 1030,6 11 0,0
16.12.2018 00:00:00 -1,9 -2,7 8 4 19 10 ONO 1031,0 16 0,0
15.12.2018 23:00:00 -2,0 -2,7 8 4 15 8 NO 1031,7 13 0,0
15.12.2018 22:00:00 -2,2 -2,8 7 4 15 8 NO 1032,4 11 0,0
15.12.2018 21:00:00 -2,2 -2,9 7 4 15 8 NO 1032,8 12 0,0
15.12.2018 20:00:00 -2,2 -2,9 7 4 17 9 NO 1033,1 13 0,0
15.12.2018 19:00:00 -2,3 -3,0 8 5 17 9 NO 1033,6 11 0,0
15.12.2018 18:00:00 -2,3 -2,9 7 4 18 10 NO 1034,0 14 0,0
15.12.2018 17:00:00 -2,4 -3,0 6 3 18 10 NO 1034,2 12 0,0
15.12.2018 16:00:00 -2,5 -3,0 7 4 16 9 NO 1034,5 11 0,0
15.12.2018 15:00:00 -2,5 -3,0 7 4 18 10 NO 1034,8 11 0,0
15.12.2018 14:00:00 -2,5 -3,2 8 4 18 10 NNO 1035,0 12 0,0
15.12.2018 13:00:00 -2,5 -3,2 7 4 17 9 NO 1035,1 12 0,0
15.12.2018 12:00:00 -2,6 -3,3 8 4 20 11 NO 1035,5 12 0,0
15.12.2018 11:00:00 -2,9 -3,4 7 4 20 11 NNO 1035,8 10 0,0
15.12.2018 10:00:00 -2,9 -3,4 8 4 19 10 NO 1035,9 11 0,0
15.12.2018 09:00:00 -3,0 -3,5 9 5 18 10 NO 1035,7 13 0,0
15.12.2018 08:00:00 -3,0 -3,5 10 6 20 11 NNO 1035,6 12 0,0
15.12.2018 07:00:00 -3,0 -3,5 8 4 20 11 NNO 1035,2 13 0,0
15.12.2018 06:00:00 -3,1 -3,6 8 4 23 12 NO 1035,2 13 0,0
15.12.2018 05:00:00 -3,1 -3,6 9 5 23 12 NNO 1035,0 14 0,0
15.12.2018 04:00:00 -3,1 -3,6 9 5 19 11 NNO 1035,1 16 0,0
15.12.2018 03:00:00 -3,1 -3,6 8 5 19 11 NNO 1035,3 17 0,0
15.12.2018 02:00:00 -3,0 -3,7 6 3 18 10 NNO 1035,2 19 0,0
15.12.2018 01:00:00 -3,0 -3,6 7 4 22 12 NNO 1035,0 17 0,0
15.12.2018 00:00:00 -3,1 -3,6 8 5 20 11 NNO 1034,9 19 0,0
14.12.2018 23:00:00 -3,0 -3,5 10 5 20 11 NNO 1035,1 24 0,0
14.12.2018 22:00:00 -3,0 -3,6 7 4 22 12 N 1035,2 21 0,0
14.12.2018 21:00:00 -3,0 -3,7 7 4 19 11 NNO 1035,3 22 0,0
14.12.2018 20:00:00 -2,9 -3,6 8 5 19 10 N 1034,9 25 0,0
14.12.2018 19:00:00 -2,9 -3,6 6 4 18 10 N 1034,7 38 0,0
14.12.2018 18:00:00 -2,9 -3,7 8 4 19 11 NNO 1034,8 34 0,0
14.12.2018 17:00:00 -2,9 -3,7 11 6 22 12 NNO 1034,7 45 0,0
14.12.2018 16:00:00 -2,8 -3,8 11 6 21 11 NNO 1034,5 50 0,0
14.12.2018 15:00:00 -2,5 -3,8 8 5 20 11 NNO 1034,4 50 0,0
14.12.2018 14:00:00 -2,3 -3,7 9 5 21 11 NNO 1034,3 50 0,0
14.12.2018 13:00:00 -1,7 -3,4 9 5 21 11 N 1033,9 50 0,0
14.12.2018 12:00:00 -1,8 -3,5 8 5 18 10 N 1033,7 50 0,0
14.12.2018 11:00:00 -1,9 -3,6 8 5 18 10 N 1034,0 50 0,0
14.12.2018 10:00:00 -2,1 -3,5 10 6 19 11 N 1034,1 50 0,0
14.12.2018 09:00:00 -2,1 -3,1 8 5 22 12 NNO 1033,9 46 0,0
14.12.2018 08:00:00 -2,4 -3,1 10 5 22 12 NO 1033,5 21 0,0
14.12.2018 07:00:00 -2,3 -3,0 11 6 23 12 NNO 1033,2 29 0,0
14.12.2018 06:00:00 -2,1 -2,9 11 6 23 12 NNO 1032,9 35 0,0
14.12.2018 05:00:00 -2,4 -3,2 11 6 23 13 NNO 1032,8 37 0,0
14.12.2018 04:00:00 -2,2 -3,0 9 5 26 14 NNO 1032,9 27 0,0
14.12.2018 03:00:00 -1,9 -2,9 13 7 26 14 NNO 1033,1 31 0,0
14.12.2018 02:00:00 -1,8 -2,8 11 6 34 18 NNO 1033,1 35 0,0
14.12.2018 01:00:00 -1,7 -2,7 13 7 34 18 NNO 1032,8 25 0,0
14.12.2018 00:00:00 -1,7 -2,4 11 6 27 15 NNO 1032,8 22 0,0
13.12.2018 23:00:00 -2,1 -2,8 14 7 31 17 NNO 1032,8 21 0,0
13.12.2018 22:00:00 -1,9 -2,7 12 6 31 17 N 1032,7 24 0,0
13.12.2018 21:00:00 -1,7 -2,5 13 7 27 14 NNO 1032,6 41 0,0
13.12.2018 20:00:00 -1,6 -2,6 14 8 27 14 NNO 1032,4 50 0,0
13.12.2018 19:00:00 -1,8 -2,8 11 6 24 13 NNO 1032,4 50 0,0
13.12.2018 18:00:00 -1,6 -2,4 11 6 22 12 NNO 1032,2 44 0,0
13.12.2018 17:00:00 -1,6 -2,4 9 5 25 13 NNO 1032,6 48 0,0
13.12.2018 16:00:00 -1,5 -2,2 8 4 25 13 NNO 1032,5 24 0,0
13.12.2018 15:00:00 -1,6 -2,4 10 6 27 14 N 1032,4 4,2 0,0
13.12.2018 14:00:00 -1,4 -2,7 12 6 27 14 NNO 1032,4 10 0,0
13.12.2018 13:00:00 -1,4 -2,5 9 5 22 12 NNO 1032,4 30 -
13.12.2018 12:00:00 -1,7 -2,7 9 5 20 11 N 1032,6 49 0,0
13.12.2018 11:00:00 -1,7 -2,7 9 5 21 11 NNO 1033,1 45 -
13.12.2018 10:00:00 -1,8 -2,5 8 4 22 12 NNO 1033,2 9 -
13.12.2018 09:00:00 -2,0 -2,6 9 5 22 12 NNO 1033,1 17 0,0
13.12.2018 08:00:00 -1,9 -2,6 9 5 21 11 NNO 1033,0 39 0,0
13.12.2018 07:00:00 -1,9 -2,6 7 4 23 13 NNO 1032,9 46 0,0
13.12.2018 06:00:00 -1,8 -2,6 10 5 23 13 NNO 1032,7 50 0,0
13.12.2018 05:00:00 -1,4 -2,1 9 5 24 13 NNO 1032,8 50 0,0
13.12.2018 04:00:00 -1,1 -1,8 12 6 25 14 NNO 1033,0 42 0,0
13.12.2018 03:00:00 -1,0 -1,7 11 6 29 16 NNO 1032,8 36 0,0
13.12.2018 02:00:00 -1,0 -1,6 12 7 29 16 NNO 1032,7 39 0,0
13.12.2018 01:00:00 -1,0 -1,6 10 6 28 15 NNO 1032,8 27 0,0
13.12.2018 00:00:00 -1,0 -1,6 12 7 28 15 NNO 1032,9 26 0,0
12.12.2018 23:00:00 -0,9 -1,5 13 7 23 13 NNO 1032,6 34 0,0
12.12.2018 22:00:00 -1,0 -1,6 12 7 22 12 N 1032,7 23 0,0
12.12.2018 21:00:00 -1,1 -1,7 9 5 21 12 NNO 1032,8 21 0,0
12.12.2018 20:00:00 -1,4 -2,0 10 6 24 13 N 1032,6 20 0,0
12.12.2018 19:00:00 -1,5 -2,3 12 6 24 13 NNO 1032,4 35 0,0
12.12.2018 18:00:00 -1,4 -2,1 10 5 28 15 NNO 1032,4 31 0,0
12.12.2018 17:00:00 -1,4 -2,1 12 7 28 15 NNO 1032,1 42 0,0
12.12.2018 16:00:00 -1,3 -2,0 11 6 23 12 N 1031,7 33 0,0
12.12.2018 15:00:00 -0,9 -1,6 8 5 22 12 N 1031,5 5 0,0
12.12.2018 14:00:00 -0,9 -1,7 10 5 24 13 N 1031,2 3,4 0,0
12.12.2018 13:00:00 -0,8 -2,1 10 5 25 14 N 1031,0 11 0,0
12.12.2018 12:00:00 -0,8 -2,2 12 6 25 14 N 1030,6 20 0,0
12.12.2018 11:00:00 -1,0 -2,3 11 6 24 13 N 1030,6 50 0,0
12.12.2018 10:00:00 -1,2 -2,6 8 5 29 16 N 1030,5 50 0,0
12.12.2018 09:00:00 -1,3 -2,7 9 5 29 16 N 1030,3 50 0,0
12.12.2018 08:00:00 -1,4 -2,7 10 6 27 15 NNO 1029,9 50 0,0
12.12.2018 07:00:00 -1,4 -2,1 10 6 29 16 N 1029,3 2,6 0,1
12.12.2018 06:00:00 -0,9 -1,6 8 4 31 17 N 1028,7 4,1 0,0
12.12.2018 05:00:00 -0,5 -1,9 9 5 34 18 NNO 1028,1 50 0,0
12.12.2018 04:00:00 0,0 -1,6 10 6 34 18 NNO 1027,5 45 0,0
12.12.2018 03:00:00 0,7 -0,8 13 7 32 17 NNO 1027,0 50 0,0
12.12.2018 02:00:00 1,2 0,2 11 6 33 18 NNO 1026,5 50 0,0
12.12.2018 01:00:00 1,5 0,9 14 8 33 18 NNO 1025,8 18 0,0
12.12.2018 00:00:00 1,4 1,1 12 7 29 16 NNO 1025,2 - 0,0
11.12.2018 23:00:00 1,5 1,1 12 7 29 16 N 1024,7 12 0,0
11.12.2018 22:00:00 1,4 1,1 12 6 30 16 NNO 1024,2 11 0,0
11.12.2018 21:00:00 1,3 1,0 11 6 30 16 NNO 1023,6 - 0,0
11.12.2018 20:00:00 1,1 0,8 14 7 30 16 NNO 1023,0 11 0,0
11.12.2018 19:00:00 1,1 0,8 14 8 28 15 N 1022,4 15 0,0
11.12.2018 18:00:00 1,1 0,8 12 6 29 16 N 1021,5 7 0,0
11.12.2018 17:00:00 1,3 1,0 13 7 30 16 N 1021,1 9 0,0
11.12.2018 16:00:00 1,6 1,2 13 7 30 16 N 1020,3 15 0,0
11.12.2018 15:00:00 1,9 1,3 14 8 31 17 N 1019,3 25 0,0
11.12.2018 14:00:00 2,3 1,3 12 6 34 18 N 1018,5 26 0,0
11.12.2018 13:00:00 2,3 1,6 13 7 34 18 NNO 1017,5 18 0,0
11.12.2018 12:00:00 2,2 1,5 14 7 35 19 NNO 1016,3 17 0,0
11.12.2018 11:00:00 2,0 1,3 16 9 33 18 NNO 1015,6 20 0,0
11.12.2018 10:00:00 1,8 1,3 14 8 40 21 NNO 1014,5 14 0,1
11.12.2018 09:00:00 1,7 1,3 17 9 38 20 NNO 1013,5 8 0,0
11.12.2018 08:00:00 1,6 1,3 15 8 37 20 NNO 1012,4 12 0,2
11.12.2018 07:00:00 1,3 1,0 14 7 34 18 N 1011,4 4,0 0,5
11.12.2018 06:00:00 1,4 1,1 14 8 34 18 N 1010,4 6 0,0
11.12.2018 05:00:00 1,6 1,2 14 8 37 20 N 1009,4 29 0,0
11.12.2018 04:00:00 1,6 1,2 16 9 37 20 NNO 1008,3 32 0,0
11.12.2018 03:00:00 1,6 1,3 16 9 35 19 N 1007,3 12 0,0
11.12.2018 02:00:00 1,5 1,3 14 8 32 18 N 1006,3 27 0,0

tt = temperatuur
td = dauwpunt
ff = windsnelheid
fx = windstoten
dd = windrichting
ppp = luchtdruk
vv = zicht
rr = neerslag

Weerstations in de omgeving